sat.trackr.live / text

‹ back to catalog

STARLINK-33986

NORAD 63870 · 2025-094G

PAYLOAD ACTIVE UNKNOWN

§ Identity

Operator
Country
US
Launch date
2025-05-10
Launch site
AFWTR
Launch vehicle
Mass (kg)
RCS (m²)

Purposes: comms

External: N2YO · Heavens-Above · Gunter

§ Orbital elements

Epoch: 2026-09-20T22:00:03.000096Z

Period
94.09 min
Inclination
69.9996°
Eccentricity
0.0002705
Mean motion
15.30398190 rev/d
Perigee alt
472.8 km
Apogee alt
476.5 km
Semi-major
6,852.8 km
B*
1.0792e-3
RAAN
99.8492°
Arg perigee
269.9099°
Mean anomaly
167.4586°
Rev number
577

§ Raw data

STARLINK-339861 63870U 25094G   26263.91670139  .00031819  00000+0  10792-2 0  99912 63870  69.9996  99.8492 0002705 269.9099 167.4586 15.30398190  5778

JSON: /api/v1/satellites/63870 · /tle

For live sub-satellite position, see the globe view (requires WebGL).

§ Visibility from observer

Set your observer location to see the next 7 days of passes ≥ 10°. The values pass through the URL so the page stays shareable.

No JS? Fill the form by hand. The geolocation button needs JavaScript.